This demonstration page uses our WeatherBlox Daily Observations layout. Learn more.

Left ArrowRight Arrow

34.02893, -84.19858

Hourly Observations for July 11, 2021

Temp ( °F °C ) Dew Point ( °F °C ) Humidity (%) Winds ( mph kmh ) Pressure ( in mb ) Visibility ( mi km ) Precip ( " mm )
2:24 am 02:24 Mostly Cloudy 71 21.7 69 20.6 94 94 SW 9 15 30.03 1017 10 16 0.00 0.00
2:53 am 02:53 Cloudy 71 21.7 70 21.1 96 96 SW 9 15 30.01 1016 10 16 0.00 0.00
3:53 am 03:53 Cloudy 70 21.1 70 21.1 100 100 SW 5 7 30.00 1016 10 16 0.00 0.00
4:53 am 04:53 Cloudy 71 21.7 70 21.1 96 96 SW 3 6 29.99 1016 10 16 0.00 0.00
5:53 am 05:53 Cloudy 71 21.7 70 21.1 96 96 SW 3 6 30.00 1016 10 16 0.00 0.00
6:53 am 06:53 Cloudy 71 21.7 70 21.1 96 96 SW 6 9 30.02 1017 10 16 0.00 0.00
7:53 am 07:53 Cloudy 71 21.7 70 21.1 96 96 SW 8 13 30.04 1017 10 16 0.00 0.00
8:53 am 08:53 Cloudy with Mist and Fog 72 22.2 70 21.1 94 94 SW 7 11 30.06 1018 6 10 0.00 0.00
9:53 am 09:53 Cloudy 73 22.8 71 21.7 94 94 S 6 9 30.06 1018 9 14 0.00 0.00
10:29 am 10:29 Cloudy 75 23.9 71 21.7 88 88 SSW 6 9 30.06 1018 10 16 0.00 0.00
10:38 am 10:38 Cloudy 75 23.9 71 21.7 88 88 SSW 6 9 30.06 1018 10 16 0.00 0.00
10:53 am 10:53 Cloudy 75 23.9 71 21.7 88 88 WSW 7 11 30.06 1018 10 16 0.00 0.00
11:53 am 11:53 Mostly Cloudy 78 25.6 73 22.8 85 85 SSW 8 13 30.06 1018 10 16 0.00 0.00
12:01 pm 12:01 Partly Cloudy 80 26.7 73 22.8 79 79 S 12 19 30.06 1018 10 16 0.00 0.00
12:21 pm 12:21 Mostly Cloudy 79 26.1 71 21.7 77 77 SW 13 20 30.06 1018 10 16 0.00 0.00
12:42 pm 12:42 Mostly Cloudy 81 27.2 73 22.8 77 77 SW 8 13 30.05 1018 10 16 0.00 0.00
12:49 pm 12:49 Mostly Cloudy 81 27 72 22 74 74 SW 12 19 30.05 1018 10 16 0.00 0.00
12:53 pm 12:53 Mostly Cloudy 81 27.2 73 22.8 77 77 SW 8 13 30.05 1018 10 16 0.00 0.00
1:53 pm 13:53 Mostly Cloudy 83 28.3 73 22.8 72 72 SW 13 20 30.03 1017 10 16 0.00 0.00
2:43 pm 14:43 Partly Cloudy with Nearby Thunderstorms 85 29.4 72 22.2 65 65 SSW 12 19 30.01 1016 10 16 0.00 0.00
2:53 pm 14:53 Partly Cloudy with Nearby Thunderstorms 85 29.4 72 22.2 65 65 SSW 8 13 30.01 1016 10 16 0.00 0.00
3:04 pm 15:04 Partly Cloudy 84 28.9 72 22.2 67 67 SSW 10 17 30.00 1016 10 16 0.00 0.00
3:53 pm 15:53 Cloudy 84 28.9 72 22.2 67 67 SSW 10 17 30.00 1016 10 16 0.00 0.00
4:53 pm 16:53 Mostly Cloudy 83 28.3 71 21.7 67 67 S 13 20 29.99 1016 10 16 0.00 0.00
5:53 pm 17:53 Mostly Cloudy 82 27.8 72 22.2 72 72 S 9 15 29.99 1016 10 16 0.00 0.00
6:53 pm 18:53 Mostly Cloudy 80 26.7 70 21.1 71 71 S 15 24 30.00 1016 10 16 0.00 0.00
7:53 pm 19:53 Sunny 78 25.6 70 21.1 76 76 S 13 20 30.02 1017 10 16 0.00 0.00
8:53 pm 20:53 Mostly Clear 76 24.4 70 21.1 82 82 S 7 11 30.03 1017 10 16 0.00 0.00
9:53 pm 21:53 Clear 75 23.9 69 20.6 82 82 SW 8 13 30.04 1017 10 16 0.00 0.00
10:53 pm 22:53 Clear 73 22.8 69 20.6 87 87 SE 3 6 30.06 1018 10 16 0.00 0.00
11:53 pm 23:53 Mostly Cloudy 73 22.8 70 21.1 90 90 SSE 6 9 30.06 1018 10 16 0.00 0.00

Powered by AerisWeather